Location: Alpine
(43.1636°N, 111.0180°W)
Time: 04:55:22
(UTC+00:00)

Tiros 1 despin weight - Pass Details

Date: 02 June 2022
Orbit: 591 x 639 km, 48.2° (Epoch: 30 June)

Event Time Altitude Azimuth Distance (km) Brightness Sun altitude
Rises 20:42:03 0° 181° (S) 2,907 ? 63.3°
Reaches altitude 10° 20:46:28 10° 142° (SE) 1,994 ? 62.8°
Maximum altitude 20:47:19 10° 131° (SE) 1,962 ? 62.6°
Drops below altitude 10° 20:48:10 10° 120° (ESE) 1,991 ? 62.5°
Sets 20:52:32 0° 81° (E) 2,888 ? 61.9°
